Year,Month,Day,Hour,Minute,Value (Times are PST for temperature in C)
2014,09,21,00,00,13.10
2014,09,21,00,01,13.20
2014,09,21,00,02,13.20
2014,09,21,00,03,13.20
2014,09,21,00,04,13.20
2014,09,21,00,05,13.20
2014,09,21,00,06,13.20
2014,09,21,00,07,13.20
2014,09,21,00,08,13.30
2014,09,21,00,09,13.30
2014,09,21,00,10,13.30
2014,09,21,00,11,13.30
2014,09,21,00,12,13.30
2014,09,21,00,13,13.30
2014,09,21,00,14,13.30
2014,09,21,00,15,13.30
2014,09,21,00,16,13.30
2014,09,21,00,17,13.30
2014,09,21,00,18,13.40
2014,09,21,00,19,13.40
2014,09,21,00,20,13.40
2014,09,21,00,21,13.40
2014,09,21,00,22,13.40
2014,09,21,00,23,13.50
2014,09,21,00,24,13.50
2014,09,21,00,25,13.50
2014,09,21,00,26,13.50
2014,09,21,00,27,13.50
2014,09,21,00,28,13.50
2014,09,21,00,29,13.50
2014,09,21,00,30,13.50
2014,09,21,00,31,13.50
2014,09,21,00,32,13.50
2014,09,21,00,33,13.50
2014,09,21,00,34,13.50
2014,09,21,00,35,13.60
2014,09,21,00,36,13.60
2014,09,21,00,37,13.70
2014,09,21,00,38,13.70
2014,09,21,00,39,13.70
2014,09,21,00,40,13.80
2014,09,21,00,41,13.80
2014,09,21,00,42,13.80
2014,09,21,00,43,13.90
2014,09,21,00,44,13.90
2014,09,21,00,45,14.00
2014,09,21,00,46,14.00
2014,09,21,00,47,14.00
2014,09,21,00,48,14.00
2014,09,21,00,49,14.00
2014,09,21,00,50,14.10
2014,09,21,00,51,14.10
2014,09,21,00,52,14.20
2014,09,21,00,53,14.20
2014,09,21,00,54,14.20
2014,09,21,00,55,14.20
2014,09,21,00,56,14.20
2014,09,21,00,57,14.20
2014,09,21,00,58,14.20
2014,09,21,00,59,14.30
2014,09,21,01,00,14.30
2014,09,21,01,01,14.30
2014,09,21,01,02,14.30
2014,09,21,01,03,14.30
2014,09,21,01,04,14.30
2014,09,21,01,05,14.30
2014,09,21,01,06,14.30
2014,09,21,01,07,14.30
2014,09,21,01,08,14.30
2014,09,21,01,09,14.30
2014,09,21,01,10,14.20
2014,09,21,01,11,14.20
2014,09,21,01,12,14.20
2014,09,21,01,13,14.20
2014,09,21,01,14,14.20
2014,09,21,01,15,14.20
2014,09,21,01,16,14.20
2014,09,21,01,17,14.20
2014,09,21,01,18,14.20
2014,09,21,01,19,14.20
2014,09,21,01,20,14.20
2014,09,21,01,21,14.10
2014,09,21,01,22,14.10
2014,09,21,01,23,14.10
2014,09,21,01,24,14.10
2014,09,21,01,25,14.10
2014,09,21,01,26,14.10
2014,09,21,01,27,14.10
2014,09,21,01,28,14.00
2014,09,21,01,29,14.00
2014,09,21,01,30,14.00
2014,09,21,01,31,14.00
2014,09,21,01,32,14.00
2014,09,21,01,33,13.90
2014,09,21,01,34,13.90
2014,09,21,01,35,13.90
2014,09,21,01,36,13.90
2014,09,21,01,37,13.90
2014,09,21,01,38,13.90
2014,09,21,01,39,13.90
2014,09,21,01,40,13.90
2014,09,21,01,41,13.90
2014,09,21,01,42,13.90
2014,09,21,01,43,13.90
2014,09,21,01,44,13.90
2014,09,21,01,45,13.90
2014,09,21,01,46,13.90
2014,09,21,01,47,13.90
2014,09,21,01,48,13.90
2014,09,21,01,49,13.90
2014,09,21,01,50,13.90
2014,09,21,01,51,13.90
2014,09,21,01,52,13.90
2014,09,21,01,53,13.90
2014,09,21,01,54,13.80
2014,09,21,01,55,13.80
2014,09,21,01,56,13.90
2014,09,21,01,57,13.90
2014,09,21,01,58,13.90
2014,09,21,01,59,13.90
2014,09,21,02,00,13.90
2014,09,21,02,01,13.90
2014,09,21,02,02,13.90
2014,09,21,02,03,13.90
2014,09,21,02,04,13.90
2014,09,21,02,05,13.90
2014,09,21,02,06,14.00
2014,09,21,02,07,14.00
2014,09,21,02,08,14.00
2014,09,21,02,09,14.10
2014,09,21,02,10,14.10
2014,09,21,02,11,14.10
2014,09,21,02,12,14.10
2014,09,21,02,13,14.10
2014,09,21,02,14,14.20
2014,09,21,02,15,14.20
2014,09,21,02,16,14.20
2014,09,21,02,17,14.20
2014,09,21,02,18,14.20
2014,09,21,02,19,14.10
2014,09,21,02,20,14.10
2014,09,21,02,21,14.10
2014,09,21,02,22,14.10
2014,09,21,02,23,14.10
2014,09,21,02,24,14.10
2014,09,21,02,25,14.20
2014,09,21,02,26,14.20
2014,09,21,02,27,14.20
2014,09,21,02,28,14.20
2014,09,21,02,29,14.20
2014,09,21,02,30,14.20
2014,09,21,02,31,14.20
2014,09,21,02,32,14.20
2014,09,21,02,33,14.20
2014,09,21,02,34,14.20
2014,09,21,02,35,14.10
2014,09,21,02,36,14.10
2014,09,21,02,37,14.10
2014,09,21,02,38,14.10
2014,09,21,02,39,14.10
2014,09,21,02,40,14.00
2014,09,21,02,41,14.00
2014,09,21,02,42,14.00
2014,09,21,02,43,14.00
2014,09,21,02,44,13.90
2014,09,21,02,45,13.90
2014,09,21,02,46,13.90
2014,09,21,02,47,13.80
2014,09,21,02,48,13.80
2014,09,21,02,49,13.80
2014,09,21,02,50,13.70
2014,09,21,02,51,13.70
2014,09,21,02,52,13.70
2014,09,21,02,53,13.70
2014,09,21,02,54,13.70
2014,09,21,02,55,13.70
2014,09,21,02,56,13.70
2014,09,21,02,57,13.60
2014,09,21,02,58,13.60
2014,09,21,02,59,13.60
2014,09,21,03,00,13.60
2014,09,21,03,01,13.60
2014,09,21,03,02,13.60
2014,09,21,03,03,13.50
2014,09,21,03,04,13.50
2014,09,21,03,05,13.50
2014,09,21,03,06,13.40
2014,09,21,03,07,13.40
2014,09,21,03,08,13.40
2014,09,21,03,09,13.40
2014,09,21,03,10,13.30
2014,09,21,03,11,13.30
2014,09,21,03,12,13.30
2014,09,21,03,13,13.30
2014,09,21,03,14,13.30
2014,09,21,03,15,13.40
2014,09,21,03,16,13.40
2014,09,21,03,17,13.40
2014,09,21,03,18,13.40
2014,09,21,03,19,13.40
2014,09,21,03,20,13.40
2014,09,21,03,21,13.40
2014,09,21,03,22,13.40
2014,09,21,03,23,13.40
2014,09,21,03,24,13.40
2014,09,21,03,25,13.40
2014,09,21,03,26,13.30
2014,09,21,03,27,13.30
2014,09,21,03,28,13.30
2014,09,21,03,29,13.30
2014,09,21,03,30,13.30
2014,09,21,03,31,13.30
2014,09,21,03,32,13.30
2014,09,21,03,33,13.30
2014,09,21,03,34,13.30
2014,09,21,03,35,13.30
2014,09,21,03,36,13.40
2014,09,21,03,37,13.40
2014,09,21,03,38,13.40
2014,09,21,03,39,13.40
2014,09,21,03,40,13.40
2014,09,21,03,41,13.40
2014,09,21,03,42,13.30
2014,09,21,03,43,13.30
2014,09,21,03,44,13.30
2014,09,21,03,45,13.30
2014,09,21,03,46,13.30
2014,09,21,03,47,13.30
2014,09,21,03,48,13.30
2014,09,21,03,49,13.30
2014,09,21,03,50,13.30
2014,09,21,03,51,13.30
2014,09,21,03,52,13.30
2014,09,21,03,53,13.30
2014,09,21,03,54,13.30
2014,09,21,03,55,13.30
2014,09,21,03,56,13.30
2014,09,21,03,57,13.30
2014,09,21,03,58,13.30
2014,09,21,03,59,13.30
2014,09,21,04,00,13.20
2014,09,21,04,01,13.20
2014,09,21,04,02,13.20
2014,09,21,04,03,13.20
2014,09,21,04,04,13.20
2014,09,21,04,05,13.10
2014,09,21,04,06,13.10
2014,09,21,04,07,13.10
2014,09,21,04,08,13.10
2014,09,21,04,09,13.10
2014,09,21,04,10,13.10
2014,09,21,04,11,13.00
2014,09,21,04,12,13.00
2014,09,21,04,13,13.00
2014,09,21,04,14,13.00
2014,09,21,04,15,13.00
2014,09,21,04,16,13.00
2014,09,21,04,17,13.00
2014,09,21,04,18,12.90
2014,09,21,04,19,12.90
2014,09,21,04,20,12.90
2014,09,21,04,21,12.90
2014,09,21,04,22,12.90
2014,09,21,04,23,12.90
2014,09,21,04,24,12.90
2014,09,21,04,25,12.80
2014,09,21,04,26,12.80
2014,09,21,04,27,12.80
2014,09,21,04,28,12.80
2014,09,21,04,29,12.80
2014,09,21,04,30,12.80
2014,09,21,04,31,12.80
2014,09,21,04,32,12.80
2014,09,21,04,33,12.80
2014,09,21,04,34,12.80
2014,09,21,04,35,12.80
2014,09,21,04,36,12.70
2014,09,21,04,37,12.70
2014,09,21,04,38,12.70
2014,09,21,04,39,12.70
2014,09,21,04,40,12.70
2014,09,21,04,41,12.70
2014,09,21,04,42,12.70
2014,09,21,04,43,12.70
2014,09,21,04,44,12.70
2014,09,21,04,45,12.70
2014,09,21,04,46,12.70
2014,09,21,04,47,12.60
2014,09,21,04,48,12.60
2014,09,21,04,49,12.60
2014,09,21,04,50,12.60
2014,09,21,04,51,12.60
2014,09,21,04,52,12.60
2014,09,21,04,53,12.60
2014,09,21,04,54,12.60
2014,09,21,04,55,12.60
2014,09,21,04,56,12.60
2014,09,21,04,57,12.60
2014,09,21,04,58,12.60
2014,09,21,04,59,12.60
2014,09,21,05,00,12.60
2014,09,21,05,01,12.60
2014,09,21,05,02,12.60
2014,09,21,05,03,12.50
2014,09,21,05,04,12.50
2014,09,21,05,05,12.50
2014,09,21,05,06,12.50
2014,09,21,05,07,12.50
2014,09,21,05,08,12.50
2014,09,21,05,09,12.50
2014,09,21,05,10,12.50
2014,09,21,05,11,12.50
2014,09,21,05,12,12.50
2014,09,21,05,13,12.50
2014,09,21,05,14,12.50
2014,09,21,05,15,12.50
2014,09,21,05,16,12.50
2014,09,21,05,17,12.50
2014,09,21,05,18,12.50
2014,09,21,05,19,12.50
2014,09,21,05,20,12.50
2014,09,21,05,21,12.50
2014,09,21,05,22,12.50
2014,09,21,05,23,12.50
2014,09,21,05,24,12.50
2014,09,21,05,25,12.50
2014,09,21,05,26,12.40
2014,09,21,05,27,12.40
2014,09,21,05,28,12.40
2014,09,21,05,29,12.40
2014,09,21,05,30,12.40
2014,09,21,05,31,12.30
2014,09,21,05,32,12.30
2014,09,21,05,33,12.30
2014,09,21,05,34,12.30
2014,09,21,05,35,12.30
2014,09,21,05,36,12.30
2014,09,21,05,37,12.30
2014,09,21,05,38,12.30
2014,09,21,05,39,12.30
2014,09,21,05,40,12.30
2014,09,21,05,41,12.30
2014,09,21,05,42,12.30
2014,09,21,05,43,12.30
2014,09,21,05,44,12.30
2014,09,21,05,45,12.30
2014,09,21,05,46,12.30
2014,09,21,05,47,12.30
2014,09,21,05,48,12.30
2014,09,21,05,49,12.30
2014,09,21,05,50,12.30
2014,09,21,05,51,12.30
2014,09,21,05,52,12.30
2014,09,21,05,53,12.30
2014,09,21,05,54,12.30
2014,09,21,05,55,12.30
2014,09,21,05,56,12.30
2014,09,21,05,57,12.30
2014,09,21,05,58,12.30
2014,09,21,05,59,12.30
2014,09,21,06,00,12.30
2014,09,21,06,01,12.30
2014,09,21,06,02,12.30
2014,09,21,06,03,12.30
2014,09,21,06,04,12.30
2014,09,21,06,05,12.30
2014,09,21,06,06,12.30
2014,09,21,06,07,12.30
2014,09,21,06,08,12.30
2014,09,21,06,09,12.30
2014,09,21,06,10,12.30
2014,09,21,06,11,12.30
2014,09,21,06,12,12.30
2014,09,21,06,13,12.30
2014,09,21,06,14,12.30
2014,09,21,06,15,12.40
2014,09,21,06,16,12.40
2014,09,21,06,17,12.40
2014,09,21,06,18,12.40
2014,09,21,06,19,12.40
2014,09,21,06,20,12.40
2014,09,21,06,21,12.40
2014,09,21,06,22,12.40
2014,09,21,06,23,12.40
2014,09,21,06,24,12.30
2014,09,21,06,25,12.30
2014,09,21,06,26,12.30
2014,09,21,06,27,12.30
2014,09,21,06,28,12.30
2014,09,21,06,29,12.30
2014,09,21,06,30,12.30
2014,09,21,06,31,12.30
2014,09,21,06,32,12.30
2014,09,21,06,33,12.20
2014,09,21,06,34,12.20
2014,09,21,06,35,12.20
2014,09,21,06,36,12.20
2014,09,21,06,37,12.20
2014,09,21,06,38,12.20
2014,09,21,06,39,12.20
2014,09,21,06,40,12.10
2014,09,21,06,41,12.10
2014,09,21,06,42,12.10
2014,09,21,06,43,12.10
2014,09,21,06,44,12.10
2014,09,21,06,45,12.10
2014,09,21,06,46,12.00
2014,09,21,06,47,12.00
2014,09,21,06,48,12.10
2014,09,21,06,49,12.10
2014,09,21,06,50,12.10
2014,09,21,06,51,12.10
2014,09,21,06,52,12.10
2014,09,21,06,53,12.20
2014,09,21,06,54,12.20
2014,09,21,06,55,12.20
2014,09,21,06,56,12.20
2014,09,21,06,57,12.20
2014,09,21,06,58,12.20
2014,09,21,06,59,12.20
2014,09,21,07,00,12.20
2014,09,21,07,01,12.20
2014,09,21,07,02,12.20
2014,09,21,07,03,12.20
2014,09,21,07,04,12.20
2014,09,21,07,05,12.20
2014,09,21,07,06,12.30
2014,09,21,07,07,12.30
2014,09,21,07,08,12.30
2014,09,21,07,09,12.30
2014,09,21,07,10,12.30
2014,09,21,07,11,12.30
2014,09,21,07,12,12.30
2014,09,21,07,13,12.30
2014,09,21,07,14,12.30
2014,09,21,07,15,12.30
2014,09,21,07,16,12.30
2014,09,21,07,17,12.30
2014,09,21,07,18,12.30
2014,09,21,07,19,12.30
2014,09,21,07,20,12.30
2014,09,21,07,21,12.30
2014,09,21,07,22,12.30
2014,09,21,07,23,12.30
2014,09,21,07,24,12.30
2014,09,21,07,25,12.30
2014,09,21,07,26,12.40
2014,09,21,07,27,12.40
2014,09,21,07,28,12.40
2014,09,21,07,29,12.40
2014,09,21,07,30,12.40
2014,09,21,07,31,12.40
2014,09,21,07,32,12.50
2014,09,21,07,33,12.50
2014,09,21,07,34,12.50
2014,09,21,07,35,12.60
2014,09,21,07,36,12.60
2014,09,21,07,37,12.60
2014,09,21,07,38,12.60
2014,09,21,07,39,12.60
2014,09,21,07,40,12.70
2014,09,21,07,41,12.70
2014,09,21,07,42,12.80
2014,09,21,07,43,12.80
2014,09,21,07,44,12.90
2014,09,21,07,45,12.90
2014,09,21,07,46,13.00
2014,09,21,07,47,13.10
2014,09,21,07,48,13.10
2014,09,21,07,49,13.20
2014,09,21,07,50,13.30
2014,09,21,07,51,13.30
2014,09,21,07,52,13.40
2014,09,21,07,53,13.40
2014,09,21,07,54,13.50
2014,09,21,07,55,13.50
2014,09,21,07,56,13.60
2014,09,21,07,57,13.70
2014,09,21,07,58,13.70
2014,09,21,07,59,13.80
2014,09,21,08,00,13.90
2014,09,21,08,01,14.00
2014,09,21,08,02,14.10
2014,09,21,08,03,14.20
2014,09,21,08,04,14.30
2014,09,21,08,05,14.40
2014,09,21,08,06,14.50
2014,09,21,08,07,14.60
2014,09,21,08,08,14.70
2014,09,21,08,09,14.80
2014,09,21,08,10,14.90
2014,09,21,08,11,15.10
2014,09,21,08,12,15.10
2014,09,21,08,13,15.20
2014,09,21,08,14,15.30
2014,09,21,08,15,15.30
2014,09,21,08,16,15.40
2014,09,21,08,17,15.40
2014,09,21,08,18,15.50
2014,09,21,08,19,15.60
2014,09,21,08,20,15.60
2014,09,21,08,21,15.70
2014,09,21,08,22,15.80
2014,09,21,08,23,15.90
2014,09,21,08,24,16.00
2014,09,21,08,25,16.10
2014,09,21,08,26,16.20
2014,09,21,08,27,16.30
2014,09,21,08,28,16.40
2014,09,21,08,29,16.50
2014,09,21,08,30,16.70
2014,09,21,08,31,16.70
2014,09,21,08,32,16.90
2014,09,21,08,33,17.00
2014,09,21,08,34,17.10
2014,09,21,08,35,17.30
2014,09,21,08,36,17.30
2014,09,21,08,37,17.40
2014,09,21,08,38,17.40
2014,09,21,08,39,17.50
2014,09,21,08,40,17.50
2014,09,21,08,41,17.60
2014,09,21,08,42,17.60
2014,09,21,08,43,17.70
2014,09,21,08,44,17.80
2014,09,21,08,45,17.80
2014,09,21,08,46,17.90
2014,09,21,08,47,18.00
2014,09,21,08,48,18.10
2014,09,21,08,49,18.10
2014,09,21,08,50,18.20
2014,09,21,08,51,18.20
2014,09,21,08,52,18.20
2014,09,21,08,53,18.30
2014,09,21,08,54,18.40
2014,09,21,08,55,18.50
2014,09,21,08,56,18.50
2014,09,21,08,57,18.60
2014,09,21,08,58,18.60
2014,09,21,08,59,18.60
2014,09,21,09,00,18.60
2014,09,21,09,01,18.60
2014,09,21,09,02,18.60
2014,09,21,09,03,18.70
2014,09,21,09,04,18.70
2014,09,21,09,05,18.70
2014,09,21,09,06,18.80
2014,09,21,09,07,18.80
2014,09,21,09,08,18.90
2014,09,21,09,09,19.00
2014,09,21,09,10,19.10
2014,09,21,09,11,19.10
2014,09,21,09,12,19.10
2014,09,21,09,13,19.20
2014,09,21,09,14,19.30
2014,09,21,09,15,19.30
2014,09,21,09,16,19.30
2014,09,21,09,17,19.40
2014,09,21,09,18,19.40
2014,09,21,09,19,19.40
2014,09,21,09,20,19.50
2014,09,21,09,21,19.50
2014,09,21,09,22,19.60
2014,09,21,09,23,19.60
2014,09,21,09,24,19.70
2014,09,21,09,25,19.80
2014,09,21,09,26,19.80
2014,09,21,09,27,19.90
2014,09,21,09,28,19.90
2014,09,21,09,29,19.80
2014,09,21,09,30,19.80
2014,09,21,09,31,19.80
2014,09,21,09,32,19.70
2014,09,21,09,33,19.60
2014,09,21,09,34,19.60
2014,09,21,09,35,19.60
2014,09,21,09,36,19.60
2014,09,21,09,37,19.70
2014,09,21,09,38,19.80
2014,09,21,09,39,19.90
2014,09,21,09,40,19.90
2014,09,21,09,41,19.90
2014,09,21,09,42,19.90
2014,09,21,09,43,19.90
2014,09,21,09,44,19.90
2014,09,21,09,45,19.90
2014,09,21,09,46,19.90
2014,09,21,09,47,19.90
2014,09,21,09,48,19.90
2014,09,21,09,49,19.90
2014,09,21,09,50,19.90
2014,09,21,09,51,19.90
2014,09,21,09,52,20.00
2014,09,21,09,53,20.10
2014,09,21,09,54,20.20
2014,09,21,09,55,20.20
2014,09,21,09,56,20.40
2014,09,21,09,57,20.40
2014,09,21,09,58,20.50
2014,09,21,09,59,20.60
2014,09,21,10,00,20.60
2014,09,21,10,01,20.70
2014,09,21,10,02,20.70
2014,09,21,10,03,20.70
2014,09,21,10,04,20.70
2014,09,21,10,05,20.70
2014,09,21,10,06,20.70
2014,09,21,10,07,20.70
2014,09,21,10,08,20.70
2014,09,21,10,09,20.80
2014,09,21,10,10,20.80
2014,09,21,10,11,20.80
2014,09,21,10,12,20.80
2014,09,21,10,13,20.80
2014,09,21,10,14,20.90
2014,09,21,10,15,20.90
2014,09,21,10,16,20.90
2014,09,21,10,17,20.90
2014,09,21,10,18,20.80
2014,09,21,10,19,20.80
2014,09,21,10,20,20.80
2014,09,21,10,21,20.80
2014,09,21,10,22,20.90
2014,09,21,10,23,21.00
2014,09,21,10,24,21.10
2014,09,21,10,25,21.20
2014,09,21,10,26,21.30
2014,09,21,10,27,21.30
2014,09,21,10,28,21.40
2014,09,21,10,29,21.50
2014,09,21,10,30,21.60
2014,09,21,10,31,21.60
2014,09,21,10,32,21.60
2014,09,21,10,33,21.40
2014,09,21,10,34,21.40
2014,09,21,10,35,21.40
2014,09,21,10,36,21.40
2014,09,21,10,37,21.40
2014,09,21,10,38,21.40
2014,09,21,10,39,21.40
2014,09,21,10,40,21.40
2014,09,21,10,41,21.40
2014,09,21,10,42,21.40
2014,09,21,10,43,21.50
2014,09,21,10,44,21.60
2014,09,21,10,45,21.60
2014,09,21,10,46,21.70
2014,09,21,10,47,21.80
2014,09,21,10,48,21.90
2014,09,21,10,49,22.00
2014,09,21,10,50,22.00
2014,09,21,10,51,21.90
2014,09,21,10,52,21.90
2014,09,21,10,53,21.90
2014,09,21,10,54,21.90
2014,09,21,10,55,22.00
2014,09,21,10,56,22.00
2014,09,21,10,57,22.00
2014,09,21,10,58,22.00
2014,09,21,10,59,22.10
2014,09,21,11,00,22.20
2014,09,21,11,01,22.30
2014,09,21,11,02,22.40
2014,09,21,11,03,22.60
2014,09,21,11,04,22.70
2014,09,21,11,05,22.80
2014,09,21,11,06,22.90
2014,09,21,11,07,22.80
2014,09,21,11,08,22.80
2014,09,21,11,09,22.70
2014,09,21,11,10,22.70
2014,09,21,11,11,22.70
2014,09,21,11,12,22.80
2014,09,21,11,13,22.90
2014,09,21,11,14,22.90
2014,09,21,11,15,22.80
2014,09,21,11,16,22.70
2014,09,21,11,17,22.70
2014,09,21,11,18,22.70
2014,09,21,11,19,22.80
2014,09,21,11,20,22.90
2014,09,21,11,21,22.90
2014,09,21,11,22,23.00
2014,09,21,11,23,23.00
2014,09,21,11,24,22.90
2014,09,21,11,25,22.90
2014,09,21,11,26,22.90
2014,09,21,11,27,22.90
2014,09,21,11,28,22.90
2014,09,21,11,29,23.00
2014,09,21,11,30,23.20
2014,09,21,11,31,23.30
2014,09,21,11,32,23.40
2014,09,21,11,33,23.40
2014,09,21,11,34,23.40
2014,09,21,11,35,23.40
2014,09,21,11,36,23.40
2014,09,21,11,37,23.40
2014,09,21,11,38,23.40
2014,09,21,11,39,23.40
2014,09,21,11,40,23.40
2014,09,21,11,41,23.50
2014,09,21,11,42,23.60
2014,09,21,11,43,23.50
2014,09,21,11,44,23.50
2014,09,21,11,45,23.40
2014,09,21,11,46,23.40
2014,09,21,11,47,23.40
2014,09,21,11,48,23.40
2014,09,21,11,49,23.40
2014,09,21,11,50,23.30
2014,09,21,11,51,23.30
2014,09,21,11,52,23.30
2014,09,21,11,53,23.30
2014,09,21,11,54,23.30
2014,09,21,11,55,23.40
2014,09,21,11,56,23.40
2014,09,21,11,57,23.50
2014,09,21,11,58,23.60
2014,09,21,11,59,23.70
2014,09,21,12,00,23.80
2014,09,21,12,01,23.90
2014,09,21,12,02,24.00
2014,09,21,12,03,24.00
2014,09,21,12,04,23.80
2014,09,21,12,05,23.70
2014,09,21,12,06,23.40
2014,09,21,12,07,22.90
2014,09,21,12,08,22.50
2014,09,21,12,09,22.20
2014,09,21,12,10,21.90
2014,09,21,12,11,21.60
2014,09,21,12,12,21.40
2014,09,21,12,13,21.10
2014,09,21,12,14,21.00
2014,09,21,12,15,20.90
2014,09,21,12,16,20.80
2014,09,21,12,17,20.80
2014,09,21,12,18,20.80
2014,09,21,12,19,20.80
2014,09,21,12,20,20.80
2014,09,21,12,21,20.80
2014,09,21,12,22,20.70
2014,09,21,12,23,20.60
2014,09,21,12,24,20.60
2014,09,21,12,25,20.60
2014,09,21,12,26,20.70
2014,09,21,12,27,20.80
2014,09,21,12,28,20.80
2014,09,21,12,29,20.70
2014,09,21,12,30,20.70
2014,09,21,12,31,20.50
2014,09,21,12,32,20.40
2014,09,21,12,33,20.40
2014,09,21,12,34,20.40
2014,09,21,12,35,20.30
2014,09,21,12,36,20.40
2014,09,21,12,37,20.50
2014,09,21,12,38,20.50
2014,09,21,12,39,20.50
2014,09,21,12,40,20.50
2014,09,21,12,41,20.40
2014,09,21,12,42,20.40
2014,09,21,12,43,20.30
2014,09,21,12,44,20.30
2014,09,21,12,45,20.20
2014,09,21,12,46,20.20
2014,09,21,12,47,20.20
2014,09,21,12,48,20.20
2014,09,21,12,49,20.20
2014,09,21,12,50,20.30
2014,09,21,12,51,20.40
2014,09,21,12,52,20.40
2014,09,21,12,53,20.50
2014,09,21,12,54,20.50
2014,09,21,12,55,20.60
2014,09,21,12,56,20.50
2014,09,21,12,57,20.50
2014,09,21,12,58,20.40
2014,09,21,12,59,20.40
2014,09,21,13,00,20.40
2014,09,21,13,01,20.50
2014,09,21,13,02,20.50
2014,09,21,13,03,20.50
2014,09,21,13,04,20.50
2014,09,21,13,05,20.50
2014,09,21,13,06,20.60
2014,09,21,13,07,20.70
2014,09,21,13,08,20.70
2014,09,21,13,09,20.80
2014,09,21,13,10,20.90
2014,09,21,13,11,21.10
2014,09,21,13,12,21.30
2014,09,21,13,13,21.30
2014,09,21,13,14,21.30
2014,09,21,13,15,21.40
2014,09,21,13,16,21.60
2014,09,21,13,17,21.60
2014,09,21,13,18,21.70
2014,09,21,13,19,21.70
2014,09,21,13,20,21.70
2014,09,21,13,21,21.70
2014,09,21,13,22,21.60
2014,09,21,13,23,21.60
2014,09,21,13,24,21.60
2014,09,21,13,25,21.70
2014,09,21,13,26,21.70
2014,09,21,13,27,21.70
2014,09,21,13,28,21.70
2014,09,21,13,29,21.70
2014,09,21,13,30,21.70
2014,09,21,13,31,21.80
2014,09,21,13,32,21.80
2014,09,21,13,33,21.80
2014,09,21,13,34,21.80
2014,09,21,13,35,21.90
2014,09,21,13,36,22.00
2014,09,21,13,37,22.00
2014,09,21,13,38,22.10
2014,09,21,13,39,22.10
2014,09,21,13,40,22.30
2014,09,21,13,41,22.40
2014,09,21,13,42,22.40
2014,09,21,13,43,22.50
2014,09,21,13,44,22.50
2014,09,21,13,45,22.50
2014,09,21,13,46,22.50
2014,09,21,13,47,22.60
2014,09,21,13,48,22.60
2014,09,21,13,49,22.50
2014,09,21,13,50,22.50
2014,09,21,13,51,22.50
2014,09,21,13,52,22.50
2014,09,21,13,53,22.60
2014,09,21,13,54,22.60
2014,09,21,13,55,22.60
2014,09,21,13,56,22.60
2014,09,21,13,57,22.60
2014,09,21,13,58,22.60
2014,09,21,13,59,22.70
2014,09,21,14,00,22.60
2014,09,21,14,01,22.60
2014,09,21,14,02,22.50
2014,09,21,14,03,22.60
2014,09,21,14,04,22.60
2014,09,21,14,05,22.70
2014,09,21,14,06,22.70
2014,09,21,14,07,22.70
2014,09,21,14,08,22.80
2014,09,21,14,09,22.80
2014,09,21,14,10,22.70
2014,09,21,14,11,22.70
2014,09,21,14,12,22.70
2014,09,21,14,13,22.80
2014,09,21,14,14,22.90
2014,09,21,14,15,22.90
2014,09,21,14,16,23.00
2014,09,21,14,17,23.10
2014,09,21,14,18,23.10
2014,09,21,14,19,23.10
2014,09,21,14,20,23.10
2014,09,21,14,21,23.20
2014,09,21,14,22,23.30
2014,09,21,14,23,23.30
2014,09,21,14,24,23.30
2014,09,21,14,25,23.40
2014,09,21,14,26,23.40
2014,09,21,14,27,23.50
2014,09,21,14,28,23.60
2014,09,21,14,29,23.50
2014,09,21,14,30,23.40
2014,09,21,14,31,23.40
2014,09,21,14,32,23.40
2014,09,21,14,33,23.30
2014,09,21,14,34,23.30
2014,09,21,14,35,23.30
2014,09,21,14,36,23.30
2014,09,21,14,37,23.30
2014,09,21,14,38,23.20
2014,09,21,14,39,23.10
2014,09,21,14,40,23.10
2014,09,21,14,41,23.10
2014,09,21,14,42,23.30
2014,09,21,14,43,23.30
2014,09,21,14,44,23.30
2014,09,21,14,45,23.30
2014,09,21,14,46,23.40
2014,09,21,14,47,23.50
2014,09,21,14,48,23.60
2014,09,21,14,49,23.60
2014,09,21,14,50,23.70
2014,09,21,14,51,23.70
2014,09,21,14,52,23.70
2014,09,21,14,53,23.70
2014,09,21,14,54,23.70
2014,09,21,14,55,23.70
2014,09,21,14,56,23.70
2014,09,21,14,57,23.70
2014,09,21,14,58,23.70
2014,09,21,14,59,23.70
2014,09,21,15,00,23.70
2014,09,21,15,01,23.70
2014,09,21,15,02,23.70
2014,09,21,15,03,23.80
2014,09,21,15,04,23.90
2014,09,21,15,05,23.90
2014,09,21,15,06,23.90
2014,09,21,15,07,24.00
2014,09,21,15,08,24.10
2014,09,21,15,09,24.10
2014,09,21,15,10,24.10
2014,09,21,15,11,24.10
2014,09,21,15,12,24.20
2014,09,21,15,13,24.30
2014,09,21,15,14,24.30
2014,09,21,15,15,24.30
2014,09,21,15,16,24.30
2014,09,21,15,17,24.40
2014,09,21,15,18,24.40
2014,09,21,15,19,24.50
2014,09,21,15,20,24.60
2014,09,21,15,21,24.60
2014,09,21,15,22,24.60
2014,09,21,15,23,24.60
2014,09,21,15,24,24.60
2014,09,21,15,25,24.50
2014,09,21,15,26,24.40
2014,09,21,15,27,24.40
2014,09,21,15,28,24.50
2014,09,21,15,29,24.50
2014,09,21,15,30,24.60
2014,09,21,15,31,24.60
2014,09,21,15,32,24.60
2014,09,21,15,33,24.60
2014,09,21,15,34,24.50
2014,09,21,15,35,24.40
2014,09,21,15,36,24.40
2014,09,21,15,37,24.50
2014,09,21,15,38,24.60
2014,09,21,15,39,24.60
2014,09,21,15,40,24.60
2014,09,21,15,41,24.50
2014,09,21,15,42,24.60
2014,09,21,15,43,24.60
2014,09,21,15,44,24.80
2014,09,21,15,45,24.90
2014,09,21,15,46,24.90
2014,09,21,15,47,24.90
2014,09,21,15,48,24.90
2014,09,21,15,49,25.00
2014,09,21,15,50,25.00
2014,09,21,15,51,25.10
2014,09,21,15,52,25.10
2014,09,21,15,53,25.00
2014,09,21,15,54,25.00
2014,09,21,15,55,25.00
2014,09,21,15,56,25.00
2014,09,21,15,57,25.10
2014,09,21,15,58,25.10
2014,09,21,15,59,25.10
2014,09,21,16,00,25.20
2014,09,21,16,01,25.20
2014,09,21,16,02,25.10
2014,09,21,16,03,25.20
2014,09,21,16,04,25.20
2014,09,21,16,05,25.20
2014,09,21,16,06,25.20
2014,09,21,16,07,25.20
2014,09,21,16,08,25.20
2014,09,21,16,09,25.20
2014,09,21,16,10,25.10
2014,09,21,16,11,25.00
2014,09,21,16,12,25.00
2014,09,21,16,13,25.00
2014,09,21,16,14,25.00
2014,09,21,16,15,24.90
2014,09,21,16,16,24.90
2014,09,21,16,17,24.80
2014,09,21,16,18,24.70
2014,09,21,16,19,24.70
2014,09,21,16,20,24.60
2014,09,21,16,21,24.60
2014,09,21,16,22,24.70
2014,09,21,16,23,24.70
2014,09,21,16,24,24.70
2014,09,21,16,25,24.80
2014,09,21,16,26,24.80
2014,09,21,16,27,24.70
2014,09,21,16,28,24.60
2014,09,21,16,29,24.50
2014,09,21,16,30,24.40
2014,09,21,16,31,24.40
2014,09,21,16,32,24.40
2014,09,21,16,33,24.30
2014,09,21,16,34,24.20
2014,09,21,16,35,24.20
2014,09,21,16,36,24.10
2014,09,21,16,37,24.10
2014,09,21,16,38,24.10
2014,09,21,16,39,24.20
2014,09,21,16,40,24.30
2014,09,21,16,41,24.30
2014,09,21,16,42,24.30
2014,09,21,16,43,24.30
2014,09,21,16,44,24.30
2014,09,21,16,45,24.30
2014,09,21,16,46,24.20
2014,09,21,16,47,24.10
2014,09,21,16,48,24.10
2014,09,21,16,49,24.10
2014,09,21,16,50,24.10
2014,09,21,16,51,24.10
2014,09,21,16,52,24.10
2014,09,21,16,53,24.00
2014,09,21,16,54,23.90
2014,09,21,16,55,23.90
2014,09,21,16,56,23.90
2014,09,21,16,57,23.90
2014,09,21,16,58,23.90
2014,09,21,16,59,23.90
2014,09,21,17,00,24.00
2014,09,21,17,01,24.10
2014,09,21,17,02,24.10
2014,09,21,17,03,24.10
2014,09,21,17,04,24.10
2014,09,21,17,05,24.00
2014,09,21,17,06,23.90
2014,09,21,17,07,23.90
2014,09,21,17,08,23.80
2014,09,21,17,09,23.80
2014,09,21,17,10,23.80
2014,09,21,17,11,23.80
2014,09,21,17,12,23.90
2014,09,21,17,13,23.90
2014,09,21,17,14,23.90
2014,09,21,17,15,23.90
2014,09,21,17,16,23.90
2014,09,21,17,17,23.90
2014,09,21,17,18,23.90
2014,09,21,17,19,23.70